[[{"header":{"parameterUnit":"m.s-1","parameterCategory":1,"la1":30.2991,"la2":30.254,"lo1":-89.0895,"lo2":-89.0444,"dy":0.0017,"dx":0.0017,"nx":28,"ny":28,"refTime":"2025-03-16T09:00:00:Z","depth":0,"parameterNumber":2,"parameterNumberName":"U-component_of_WINDS"},"data":[0,0,0,0,0,0,0,0,0,0,0,0,0,0,0,0,0,0,0,0,0,0,0,0,0,0,0,0,0,0,0,0,0,0,0,0,0,0,0,0,0,0,0,0,0,0,0,0,0,0,0,0,0,0,0,0,0,0,-0.4768,-0.4768,0,-0.4756,-0.4756,-0.4755,-0.4706,-0.4705,-0.4704,-0.4703,-0.4693,-0.4693,-0.4694,0,0,0,0,0,0,0,0,0,0,0,0,0,-0.475,-0.475,-0.4768,-0.4768,-0.4767,-0.4756,-0.4756,-0.4755,-0.4706,-0.4705,-0.4704,-0.4702,-0.4692,-0.4693,-0.4694,0,0,0,0,0,0,0,0,0,0,0,0,0,-0.475,-0.4751,-0.4768,-0.4741,-0.4739,-0.4756,-0.4756,-0.4755,-0.4707,-0.4705,-0.4703,-0.4702,-0.4692,-0.4693,-0.4694,-0.4736,0,0,-0.4698,-0.4699,0,0,0,0,0,0,0,0,-0.475,-0.475,-0.4745,-0.4743,-0.4741,-0.4731,-0.4745,-0.4749,-0.4707,-0.4719,-0.4703,-0.4701,-0.4707,-0.4707,-0.4708,-0.4736,-0.4735,-0.4698,-0.4699,-0.4699,-0.47,0,0,0,0,0,0,0,-0.475,-0.4751,-0.4763,-0.4745,-0.4742,-0.4731,-0.4729,-0.4746,-0.4723,-0.4718,-0.4714,-0.4713,-0.4705,-0.4707,-0.4708,-0.4735,-0.4698,-0.4699,-0.47,-0.47,-0.4796,-0.4798,0,0,0,0,0,0,-0.4753,-0.4751,-0.4763,-0.4763,-0.4741,-0.4733,-0.473,-0.4736,-0.4722,-0.4719,-0.4715,-0.4711,-0.4706,-0.4706,-0.4707,-0.4755,-0.4699,-0.4701,-0.4701,-0.4794,-0.4796,-0.4798,0,0,0,0,0,0,-0.4753,-0.4755,-0.4764,-0.4756,-0.4756,-0.4735,-0.4741,-0.4736,-0.4738,-0.472,-0.4716,-0.4721,-0.4705,-0.4705,-0.4729,-0.4754,-0.4701,-0.4702,-0.4792,-0.4795,-0.4797,-0.4851,0,0,0,0,0,0,-0.4753,-0.4755,-0.4771,-0.4757,-0.4757,-0.4786,-0.4742,-0.4737,-0.474,-0.4735,-0.4725,-0.4722,-0.4703,-0.4728,-0.473,-0.4755,-0.4703,-0.479,-0.4793,-0.4796,-0.4847,-0.4855,-0.4863,0,0,0,0,0,-0.4752,-0.4787,-0.4772,-0.4773,-0.4775,-0.4787,-0.4787,-0.4765,-0.4742,-0.4758,-0.4746,-0.4722,-0.4751,-0.473,-0.4733,-0.4758,-0.4788,-0.4792,-0.4796,-0.4844,-0.4854,-0.4862,0,0,0,0,0,0,-0.4805,-0.4784,-0.4767,-0.4798,-0.4795,-0.4779,-0.4798,-0.4777,-0.478,-0.4776,-0.4748,-0.4747,-0.4774,-0.4768,-0.4746,-0.4798,-0.4765,-0.477,-0.48,-0.481,-0.4817,-0.4818,-0.4704,0,0,0,0,0,-0.482,-0.4831,-0.4813,-0.4842,-0.4841,-0.482,-0.4824,-0.4807,-0.4803,-0.4801,-0.4791,-0.4789,-0.4797,-0.4803,-0.481,-0.4846,-0.4843,-0.4864,-0.4872,-0.4879,-0.4883,-0.4901,-0.4911,-0.4812,-0.4812,-0.4812,0,0,-0.4852,-0.4842,-0.4851,-0.4852,-0.4847,-0.486,-0.4819,-0.4834,-0.4843,-0.4804,-0.4825,-0.4818,-0.4813,-0.4843,-0.4856,-0.4839,-0.491,-0.4884,-0.4889,-0.489,-0.4907,-0.4916,-0.4924,-0.4814,-0.4814,-0.4813,0,0,-0.4916,-0.4909,-0.4932,-0.4928,-0.4921,-0.4907,-0.4913,-0.49,-0.4893,-0.4914,-0.4885,-0.4895,-0.491,-0.4908,-0.4909,-0.4971,-0.4949,-0.4974,-0.5014,-0.5033,-0.504,-0.5047,-0.5069,-0.5078,-0.4978,-0.4979,-0.4979,0,-0.4956,-0.4973,-0.4947,-0.4964,-0.4965,-0.4929,-0.4953,-0.495,-0.4947,-0.4949,-0.493,-0.4947,-0.4942,-0.497,-0.4985,-0.4987,-0.4993,-0.4975,-0.5041,-0.5048,-0.5054,-0.5075,-0.5083,-0.4982,-0.4981,-0.4981,-0.4981,0,-0.5023,-0.5035,-0.5054,-0.505,-0.5054,-0.5074,-0.5052,-0.5059,-0.5041,-0.5029,-0.5051,-0.5043,-0.5047,-0.5052,-0.5036,-0.5079,-0.5068,-0.5046,-0.5013,-0.5067,-0.5086,-0.5094,-0.4986,-0.4985,-0.4984,-0.4983,0,0,-0.512,-0.5101,-0.5109,-0.5106,-0.5096,-0.5105,-0.5123,-0.5126,-0.5133,-0.5131,-0.5146,-0.5159,-0.5138,-0.5139,-0.5122,-0.5138,-0.5187,-0.5113,-0.5112,-0.5127,-0.5234,-0.5251,-0.526,-0.5172,-0.5174,-0.5175,-0.5234,0,-0.5181,-0.521,-0.5188,-0.5222,-0.5232,-0.5198,-0.5214,-0.521,-0.5199,-0.5207,-0.5194,-0.5204,-0.5175,-0.5176,-0.519,-0.5178,-0.5208,-0.5173,-0.5186,-0.5187,-0.5188,-0.527,-0.5289,-0.5345,-0.5241,-0.5243,-0.5243,0,-0.5256,-0.5257,-0.5291,-0.5278,-0.5281,-0.5296,-0.5297,-0.5305,-0.5299,-0.529,-0.529,-0.5269,-0.5286,-0.5253,-0.5277,-0.5254,-0.5258,-0.5253,-0.5254,-0.5255,-0.5219,-0.5273,-0.5362,-0.5371,-0.5255,-0.5254,-0.5253,0,-0.5324,-0.5333,-0.5355,-0.5354,-0.5339,-0.535,-0.5344,-0.5336,-0.534,-0.5341,-0.5342,-0.5346,-0.5348,-0.5351,-0.5331,-0.5309,-0.5357,-0.5323,-0.535,-0.5351,-0.5362,-0.5362,-0.5453,-0.5365,-0.5364,-0.5364,-0.5364,0,-0.5394,-0.5417,-0.5385,-0.5399,-0.5423,-0.5396,-0.5421,-0.5412,-0.5405,-0.5417,-0.5388,-0.5399,-0.5372,-0.5381,-0.5365,-0.5387,-0.5388,-0.5381,-0.5377,-0.5384,-0.5385,-0.5386,-0.5382,-0.5366,-0.5366,-0.5366,-0.5365,0,-0.5474,-0.5454,-0.5475,-0.5458,-0.5455,-0.5473,-0.5459,-0.5471,-0.5458,-0.5473,-0.5475,-0.5454,-0.5463,-0.5443,-0.5449,-0.5438,-0.5469,-0.5459,-0.5471,-0.5468,-0.5496,-0.5494,-0.5592,-0.5604,-0.5508,-0.5509,-0.551,0,-0.552,-0.5537,-0.5521,-0.5526,-0.5522,-0.5531,-0.5533,-0.5508,-0.5512,-0.5506,-0.5519,-0.5525,-0.5529,-0.5544,-0.553,-0.5534,-0.5523,-0.5558,-0.5524,-0.553,-0.5524,-0.5523,-0.5525,-0.5565,-0.5566,-0.5567,-0.5568,0,-0.5605,-0.5593,-0.5598,-0.5599,-0.5603,-0.5603,-0.5601,-0.5607,-0.558,-0.5586,-0.5594,-0.5596,-0.5602,-0.5608,-0.5609,-0.5604,-0.5582,-0.5578,-0.5585,-0.5592,-0.5598,-0.5595,-0.549,-0.5576,-0.5575,-0.5575,-0.5574,-0.5574,-0.5669,-0.5682,-0.5673,-0.5679,-0.5674,-0.5673,-0.5683,-0.567,-0.5676,-0.5678,-0.5663,-0.5674,-0.5667,-0.5666,-0.5663,-0.5672,-0.5656,-0.5666,-0.5668,-0.5671,-0.5676,-0.5597,-0.5672,-0.5671,-0.5671,-0.5671,-0.5671,0,-0.5752,-0.5744,-0.575,-0.5747,-0.5752,-0.5729,-0.5726,-0.5731,-0.5741,-0.5736,-0.574,-0.5749,-0.5755,-0.5741,-0.5744,-0.5754,-0.5744,-0.5756,-0.5755,-0.5754,-0.5689,-0.5683,-0.5764,-0.5764,-0.5764,-0.5764,-0.5764,-0.5764,-0.5796,-0.5816,-0.5803,-0.5821,-0.5813,-0.5823,-0.5823,-0.5821,-0.5817,-0.5828,-0.5833,-0.5823,-0.5814,-0.5817,-0.5821,-0.5817,-0.582,-0.5836,-0.5828,-0.5768,-0.5759,-0.575,-0.5744,-0.5836,-0.5837,-0.5892,-0.5892,-0.5893]},{"header":{"parameterUnit":"m.s-1","parameterCategory":1,"la1":30.2991,"la2":30.254,"lo1":-89.0895,"lo2":-89.0444,"dy":0.0017,"dx":0.0017,"nx":28,"ny":28,"refTime":"2025-03-16T09:00:00:Z","depth":0,"parameterNumber":3,"parameterNumberName":"V-component_of_WINDS"},"data":[0,0,0,0,0,0,0,0,0,0,0,0,0,0,0,0,0,0,0,0,0,0,0,0,0,0,0,0,0,0,0,0,0,0,0,0,0,0,0,0,0,0,0,0,0,0,0,0,0,0,0,0,0,0,0,0,0,0,-2.095,-2.0951,0,-2.1103,-2.1105,-2.1107,-2.1125,-2.1123,-2.1122,-2.112,-2.1279,-2.1284,-2.129,0,0,0,0,0,0,0,0,0,0,0,0,0,-2.0672,-2.0677,-2.0949,-2.0951,-2.0953,-2.1103,-2.1105,-2.1107,-2.1125,-2.1123,-2.1121,-2.112,-2.1277,-2.1283,-2.129,0,0,0,0,0,0,0,0,0,0,0,0,0,-2.0805,-2.0678,-2.0949,-2.098,-2.0984,-2.1103,-2.1105,-2.1108,-2.1126,-2.1123,-2.1121,-2.1119,-2.1274,-2.1283,-2.1291,-2.1389,0,0,-2.1317,-2.132,0,0,0,0,0,0,0,0,-2.0798,-2.0816,-2.0974,-2.0978,-2.0983,-2.1093,-2.1065,-2.1202,-2.1126,-2.1072,-2.112,-2.1118,-2.1219,-2.1231,-2.1265,-2.1396,-2.1403,-2.1318,-2.1323,-2.1326,-2.1329,0,0,0,0,0,0,0,-2.0789,-2.0809,-2.101,-2.0976,-2.0982,-2.0987,-2.1003,-2.1091,-2.1156,-2.1077,-2.1078,-2.1096,-2.1221,-2.1257,-2.1269,-2.1405,-2.1317,-2.1325,-2.133,-2.1333,-2.1625,-2.1627,0,0,0,0,0,0,-2.0773,-2.0801,-2.1005,-2.1015,-2.0883,-2.0993,-2.1012,-2.106,-2.1155,-2.1168,-2.1098,-2.1096,-2.1244,-2.1259,-2.1275,-2.1396,-2.1326,-2.1334,-2.1339,-2.1622,-2.1625,-2.1628,0,0,0,0,0,0,-2.0767,-2.0791,-2.0999,-2.0909,-2.0935,-2.1001,-2.1054,-2.1064,-2.11,-2.1171,-2.1183,-2.1123,-2.1243,-2.1263,-2.136,-2.1402,-2.1338,-2.1346,-2.1619,-2.1623,-2.1627,-2.1639,0,0,0,0,0,0,-2.0759,-2.0789,-2.0827,-2.0909,-2.094,-2.1082,-2.1057,-2.1069,-2.1115,-2.1114,-2.1198,-2.121,-2.1242,-2.1348,-2.1369,-2.1412,-2.1352,-2.1615,-2.1621,-2.1625,-2.1635,-2.1643,-2.1649,0,0,0,0,0,-2.0749,-2.0824,-2.0829,-2.0853,-2.0989,-2.1084,-2.1102,-2.1138,-2.1118,-2.1157,-2.1202,-2.1207,-2.1394,-2.1358,-2.1381,-2.1428,-2.1613,-2.1619,-2.1625,-2.1632,-2.1641,-2.1649,0,0,0,0,0,0,-2.0745,-2.0836,-2.0842,-2.0945,-2.1007,-2.1087,-2.1137,-2.1147,-2.1215,-2.1212,-2.1253,-2.1272,-2.1368,-2.1408,-2.1366,-2.1528,-2.1501,-2.1512,-2.1498,-2.1508,-2.1515,-2.1504,-2.1359,0,0,0,0,0,-2.0756,-2.0826,-2.0902,-2.0986,-2.1017,-2.1071,-2.1115,-2.1137,-2.1202,-2.1228,-2.1281,-2.1345,-2.1418,-2.1465,-2.1536,-2.1641,-2.1659,-2.1684,-2.1691,-2.1697,-2.1706,-2.1765,-2.1777,-2.1648,-2.1648,-2.1648,0,0,-2.078,-2.0838,-2.088,-2.0987,-2.1037,-2.1109,-2.1093,-2.117,-2.1224,-2.124,-2.1336,-2.1376,-2.145,-2.1552,-2.1599,-2.1588,-2.1746,-2.1705,-2.1708,-2.1715,-2.1772,-2.1784,-2.1795,-2.1652,-2.1651,-2.165,0,0,-2.0861,-2.0911,-2.0988,-2.1038,-2.1115,-2.115,-2.1169,-2.1248,-2.1275,-2.1372,-2.1385,-2.145,-2.1574,-2.1627,-2.1669,-2.1769,-2.1776,-2.1791,-2.1828,-2.1885,-2.1895,-2.1904,-2.194,-2.1953,-2.18,-2.18,-2.18,0,-2.0881,-2.099,-2.1025,-2.1102,-2.1148,-2.1166,-2.1244,-2.1291,-2.1387,-2.1419,-2.1404,-2.1561,-2.1612,-2.1726,-2.175,-2.1784,-2.1807,-2.1782,-2.1891,-2.19,-2.191,-2.1944,-2.1958,-2.1801,-2.1801,-2.1801,-2.1801,0,-2.1011,-2.1086,-2.1138,-2.123,-2.1282,-2.1358,-2.1406,-2.1455,-2.1472,-2.151,-2.1607,-2.1669,-2.1753,-2.1781,-2.1799,-2.1898,-2.1889,-2.1882,-2.1857,-2.1923,-2.1956,-2.1969,-2.1803,-2.1803,-2.1802,-2.1802,0,0,-2.1094,-2.1204,-2.1222,-2.1264,-2.135,-2.1408,-2.1486,-2.1567,-2.1609,-2.1674,-2.174,-2.1845,-2.1839,-2.1888,-2.1911,-2.1961,-2.2036,-2.1948,-2.1951,-2.1963,-2.2149,-2.2154,-2.2169,-2.2041,-2.2044,-2.2046,-2.2143,0,-2.1184,-2.1322,-2.1356,-2.1474,-2.1544,-2.1562,-2.1629,-2.1689,-2.1726,-2.179,-2.1831,-2.1905,-2.1892,-2.1921,-2.1971,-2.2016,-2.2074,-2.201,-2.2103,-2.2106,-2.2085,-2.2186,-2.2192,-2.228,-2.2156,-2.2159,-2.216,0,-2.1308,-2.1376,-2.15,-2.1577,-2.1607,-2.1667,-2.1745,-2.1806,-2.1874,-2.1898,-2.1952,-2.1971,-2.2052,-2.2022,-2.2134,-2.2089,-2.213,-2.2158,-2.2162,-2.2173,-2.2138,-2.22,-2.231,-2.2323,-2.2181,-2.2179,-2.2178,0,-2.1356,-2.1479,-2.1569,-2.1604,-2.1695,-2.1737,-2.1777,-2.1843,-2.189,-2.1958,-2.1989,-2.2065,-2.2107,-2.2166,-2.2205,-2.2179,-2.2314,-2.2287,-2.2336,-2.2335,-2.2364,-2.2362,-2.2483,-2.2389,-2.2389,-2.2389,-2.2389,0,-2.1454,-2.153,-2.1592,-2.1648,-2.1733,-2.1772,-2.1855,-2.1896,-2.1954,-2.2018,-2.2038,-2.2097,-2.2145,-2.2211,-2.2242,-2.2331,-2.235,-2.2371,-2.2378,-2.237,-2.2367,-2.2397,-2.2392,-2.2393,-2.2392,-2.2391,-2.239,0,-2.1523,-2.1568,-2.1667,-2.1745,-2.1767,-2.1826,-2.1893,-2.1948,-2.1985,-2.2065,-2.2087,-2.2145,-2.2224,-2.2269,-2.2368,-2.2389,-2.2488,-2.2492,-2.2465,-2.2468,-2.2515,-2.251,-2.2659,-2.2681,-2.2573,-2.2574,-2.2574,0,-2.1583,-2.1641,-2.1725,-2.1769,-2.181,-2.1881,-2.1929,-2.1969,-2.2018,-2.21,-2.2145,-2.2225,-2.2291,-2.2416,-2.2468,-2.2544,-2.255,-2.2597,-2.2562,-2.2551,-2.2552,-2.2548,-2.2554,-2.2604,-2.2605,-2.2605,-2.2606,0,-2.1684,-2.1703,-2.1771,-2.1847,-2.1904,-2.1966,-2.2027,-2.2062,-2.2113,-2.2167,-2.2248,-2.2299,-2.24,-2.248,-2.256,-2.2601,-2.2612,-2.2617,-2.2632,-2.2624,-2.2606,-2.2617,-2.2482,-2.2613,-2.2613,-2.2612,-2.2612,-2.2611,-2.1751,-2.1803,-2.1871,-2.1946,-2.1996,-2.2053,-2.2109,-2.2153,-2.2221,-2.2306,-2.2326,-2.2411,-2.2477,-2.2586,-2.263,-2.2697,-2.2688,-2.2711,-2.2716,-2.2721,-2.2723,-2.2595,-2.2712,-2.2711,-2.2711,-2.2711,-2.2711,0,-2.1853,-2.1897,-2.1966,-2.2051,-2.2111,-2.2115,-2.2183,-2.2233,-2.2307,-2.2368,-2.2433,-2.2526,-2.2603,-2.266,-2.2739,-2.2782,-2.2789,-2.2801,-2.2799,-2.2808,-2.2726,-2.2705,-2.2794,-2.2794,-2.2794,-2.2794,-2.2794,-2.2794,-2.1914,-2.2004,-2.2031,-2.2146,-2.2189,-2.2273,-2.2311,-2.2364,-2.2413,-2.2516,-2.2579,-2.2616,-2.2676,-2.2759,-2.283,-2.2845,-2.2873,-2.2885,-2.29,-2.2823,-2.2814,-2.2805,-2.2786,-2.289,-2.2891,-2.2977,-2.2978,-2.2978]}]]